Salem, OR

8:51 AM PDT on October 18, 2017 (GMT -0700)
McNary

Weather History for KSLE - May, 2013

Change the Weather History Date:

Thursday, May 9, 2013

  Actual Average Record
Temperature  
Mean Temperature 64 °F 55 °F  
Max Temperature 81 °F 66 °F 86 °F (1987)
Min Temperature 46 °F 43 °F 31 °F (1894)
Degree Days  
Heating Degree Days 1 10  
Month to date heating degree days 30 101  
Since 1 July heating degree days 4019 4344  
Cooling Degree Days 0 0  
Month to date cooling degree days 4 0  
Year to date cooling degree days 4 0  
Growing Degree Days 14 (Base 50)    
Moisture  
Dew Point 51 °F    
Average Humidity 68    
Maximum Humidity 100    
Minimum Humidity 36    
Precipitation  
Precipitation 0.00 in 0.07 in 0.61 in (1967)
Month to date precipitation 0.00 0.65  
Year to date precipitation 7.65 17.97  
Snow  
Snow 0.00 in - - ()
Month to date snowfall 0.0  
Snow Depth 0.00 in    
Sea Level Pressure  
Sea Level Pressure 30.13 in    
Wind  
Wind Speed 4 mph (NNE)    
Max Wind Speed 14 mph    
Max Gust Speed 18 mph    
Visibility 10 miles    
Events      
T = Trace of Precipitation, MM = Missing Value Source: NWS Daily Summary

Daily Weather History Graph

Daily Weather History Graph

Search for Another Location

Airport or City:

Trip Planner

Search our weather history database for the weather conditions in past years. The results will help you decide how hot, cold, wet, or windy it might be!

Date:

Astronomy

May. 09, 2013 Rise Set
Actual Time 5:50 AM PDT 8:27 PM PDT
Civil Twilight 5:16 AM PDT 9:01 PM PDT
Nautical Twilight 4:34 AM PDT 9:43 PM PDT
Astronomical Twilight 3:46 AM PDT 10:31 PM PDT
Moon 5:39 AM PDT (5/9) 8:27 PM PDT (5/9)
Length of Visible Light 15h 44m
Length of Day
14h 37m
Waning Crescent, 0% of the Moon is Illuminated
May 9
Waning Crescent
May 9
New
May 17
First Quarter
May 24
Full
May 31
Last Quarter

Hourly Weather History & Observations

Time (PDT) Temp. Dew Point Humidity Pressure Visibility Wind Dir Wind Speed Gust Speed Precip Events Conditions
12:56 AM 53.1 °F 48.9 °F 86% 30.15 in 10.0 mi Calm Calm - N/A   Clear
1:56 AM 51.1 °F 48.0 °F 89% 30.16 in 10.0 mi Calm Calm - N/A   Clear
2:56 AM 50.0 °F 46.9 °F 89% 30.16 in 10.0 mi Calm Calm - N/A   Clear
3:56 AM 48.9 °F 46.9 °F 93% 30.17 in 10.0 mi Calm Calm - N/A   Clear
4:56 AM 46.9 °F 46.9 °F 100% 30.17 in 10.0 mi Calm Calm - N/A   Clear
5:56 AM 46.0 °F 46.0 °F 100% 30.17 in 10.0 mi Calm Calm - N/A   Clear
6:56 AM 50.0 °F 48.0 °F 93% 30.18 in 10.0 mi Calm Calm - N/A   Clear
7:56 AM 53.1 °F 48.9 °F 86% 30.19 in 10.0 mi Calm Calm - N/A   Overcast
8:56 AM 55.9 °F 50.0 °F 80% 30.19 in 10.0 mi NE 5.8 mph - N/A   Mostly Cloudy
9:56 AM 57.9 °F 51.1 °F 78% 30.19 in 10.0 mi Calm Calm - N/A   Scattered Clouds
10:56 AM 63.0 °F 52.0 °F 67% 30.18 in 10.0 mi Calm Calm - N/A   Clear
11:56 AM 68.0 °F 53.1 °F 59% 30.17 in 10.0 mi NE 4.6 mph - N/A   Clear
12:56 PM 72.0 °F 52.0 °F 49% 30.15 in 10.0 mi Variable 3.5 mph - N/A   Clear
1:56 PM 75.0 °F 51.1 °F 43% 30.13 in 10.0 mi North 10.4 mph - N/A   Clear
2:56 PM 78.1 °F 51.1 °F 39% 30.12 in 10.0 mi North 10.4 mph - N/A   Clear
3:56 PM 79.0 °F 52.0 °F 39% 30.09 in 10.0 mi North 9.2 mph 18.4 mph N/A   Clear
4:56 PM 80.1 °F 52.0 °F 38% 30.07 in 10.0 mi North 10.4 mph - N/A   Clear
5:56 PM 79.0 °F 53.1 °F 40% 30.06 in 10.0 mi ENE 9.2 mph - N/A   Clear
6:56 PM 77.0 °F 53.1 °F 43% 30.06 in 10.0 mi East 6.9 mph - N/A   Clear
7:56 PM 75.0 °F 51.1 °F 43% 30.07 in 10.0 mi NE 4.6 mph - N/A   Clear
8:56 PM 69.1 °F 53.1 °F 57% 30.08 in 10.0 mi NNW 5.8 mph - N/A   Clear
9:56 PM 64.9 °F 54.0 °F 68% 30.10 in 10.0 mi Calm Calm - N/A   Clear
10:56 PM 62.1 °F 54.0 °F 75% 30.11 in 10.0 mi Calm Calm - N/A   Clear
11:56 PM 59.0 °F 53.1 °F 81% 30.12 in 10.0 mi Calm Calm - N/A   Clear